Norfolk, NE

8:53 PM CST on February 22, 2017 (GMT -0600)
Stefan Memorial

Weather History for KOFK - November, 2010

Change the Weather History Date:

Thursday, November 11, 2010

  Actual Average Record
Temperature  
Mean Temperature 37 °F 39 °F  
Max Temperature 53 °F 50 °F 77 °F (2005)
Min Temperature 20 °F 28 °F -13 °F (1986)
Degree Days  
Heating Degree Days 28 26  
Month to date heating degree days 192 257  
Since 1 July heating degree days 621 842  
Cooling Degree Days 0 0  
Month to date cooling degree days 0 0  
Year to date cooling degree days 985 915  
Moisture  
Dew Point 29 °F    
Average Humidity 69    
Maximum Humidity 92    
Minimum Humidity 46    
Precipitation  
Precipitation 0.10 in 0.04 in 1.40 in (1982)
Month to date precipitation 0.10 0.53  
Year to date precipitation 28.63 25.82  
Snow  
Snow 0.00 in 0.10 in - ()
Month to date snowfall 0.0 1.0  
Since 1 July snowfall T 1.8  
Snow Depth 0.00 in    
Sea Level Pressure  
Sea Level Pressure 30.37 in    
Wind  
Wind Speed 4 mph (NE)    
Max Wind Speed 20 mph    
Max Gust Speed 25 mph    
Visibility 10 miles    
Events Rain    
T = Trace of Precipitation, MM = Missing Value Source: NWS Daily Summary

Daily Weather History Graph

Daily Weather History Graph

Search for Another Location

Airport or City:

Trip Planner

Search our weather history database for the weather conditions in past years. The results will help you decide how hot, cold, wet, or windy it might be!

Date:

Astronomy

Nov. 11, 2010 Rise Set
Actual Time 7:14 AM CST 5:12 PM CST
Civil Twilight 6:44 AM CST 5:42 PM CST
Nautical Twilight 6:11 AM CST 6:15 PM CST
Astronomical Twilight 5:38 AM CST 6:48 PM CST
Moon 12:15 PM CST (11/11) 10:19 PM CST (11/11)
Length of Visible Light 10h 57m
Length of Day
9h 57m
Waxing Crescent, 32% of the Moon is Illuminated
Nov 11
Waxing Crescent
Nov 13
First Quarter
Nov 21
Full
Nov 28
Last Quarter
Dec 5
New

Hourly Weather History & Observations

Time (CST) Temp. Windchill Dew Point Humidity Pressure Visibility Wind Dir Wind Speed Gust Speed Precip Events Conditions
12:56 AM 26.1 °F 21.9 °F 23.0 °F 88% 30.21 in 10.0 mi West 3.5 mph - N/A   Clear
1:56 AM 25.0 °F - 23.0 °F 92% 30.23 in 10.0 mi Calm Calm - N/A   Clear
2:56 AM 25.0 °F - 23.0 °F 92% 30.24 in 10.0 mi Calm Calm - N/A   Clear
3:56 AM 24.1 °F - 21.9 °F 91% 30.25 in 10.0 mi Calm Calm - N/A   Clear
4:56 AM 23.0 °F - 19.9 °F 88% 30.27 in 10.0 mi Calm Calm - N/A   Clear
5:56 AM 25.0 °F - 23.0 °F 92% 30.31 in 10.0 mi Calm Calm - N/A   Clear
6:31 AM 24.8 °F - 21.2 °F 86% 30.27 in 1.5 mi Calm Calm - N/A   Clear
6:47 AM 21.2 °F - 19.4 °F 93% 30.28 in 3.0 mi Calm Calm - N/A   Clear
6:56 AM 19.9 °F - 18.0 °F 92% 30.35 in 10.0 mi Calm Calm - N/A   Clear
7:56 AM 25.0 °F - 23.0 °F 92% 30.38 in 10.0 mi Calm Calm - N/A   Clear
8:56 AM 32.0 °F - 28.9 °F 88% 30.40 in 10.0 mi Calm Calm - N/A   Clear
9:56 AM 39.0 °F - 33.1 °F 79% 30.40 in 10.0 mi Calm Calm - N/A   Clear
10:56 AM 46.9 °F - 33.1 °F 59% 30.40 in 10.0 mi East 5.8 mph - N/A   Clear
11:56 AM 48.9 °F - 33.1 °F 54% 30.40 in 10.0 mi SE 3.5 mph - N/A   Clear
12:56 PM 51.1 °F - 33.1 °F 50% 30.39 in 10.0 mi Variable 3.5 mph - N/A   Clear
1:56 PM 51.1 °F - 32.0 °F 48% 30.39 in 10.0 mi Calm Calm - N/A   Clear
3:56 PM 51.1 °F - 32.0 °F 48% 30.40 in 10.0 mi East 5.8 mph - N/A   Partly Cloudy
4:56 PM 50.0 °F - 30.9 °F 48% 30.40 in 10.0 mi ENE 3.5 mph - N/A   Partly Cloudy
5:56 PM 48.0 °F - 30.9 °F 52% 30.40 in 10.0 mi ENE 6.9 mph - N/A   Overcast
6:56 PM 48.0 °F - 32.0 °F 54% 30.45 in 10.0 mi NE 6.9 mph - N/A   Overcast
7:56 PM 46.0 °F 39.9 °F 33.1 °F 61% 30.44 in 10.0 mi NNE 13.8 mph - 0.00 in Rain Light Rain
8:56 PM 43.0 °F 36.4 °F 36.0 °F 76% 30.43 in 10.0 mi NE 12.7 mph - 0.02 in Rain Light Rain
9:24 PM 42.8 °F 36.2 °F 35.6 °F 76% 30.40 in 10.0 mi NNE 12.7 mph 19.6 mph 0.03 in Rain Light Rain
9:56 PM 42.1 °F 36.1 °F 36.0 °F 79% 30.45 in 10.0 mi NNE 10.4 mph - 0.04 in   Overcast
10:06 PM 41.0 °F 34.7 °F 37.4 °F 87% 30.42 in 10.0 mi North 10.4 mph - N/A Rain Light Rain
10:15 PM 41.0 °F 33.5 °F 35.6 °F 81% 30.41 in 10.0 mi North 13.8 mph - 0.00 in Rain Light Rain
10:56 PM 39.9 °F 35.8 °F 36.0 °F 86% 30.46 in 10.0 mi North 5.8 mph - 0.01 in Rain Light Rain
11:49 PM 37.4 °F 27.5 °F 35.6 °F 93% 30.40 in 10.0 mi North 18.4 mph - 0.03 in Rain Light Rain
11:56 PM 37.9 °F 28.2 °F 35.1 °F 89% 30.43 in 10.0 mi North 18.4 mph - 0.03 in Rain Light Rain